FW0295 Weather Reports


time (UTC)temp
C
wind
direction
speed
KPH
gust
KPH
rain 1hr
cm
rain 24hr
cm
rain mn
cm
humidity
%
barometer
mb
20260507124524 3 284 0.0 0.0 0.00 0.13 0.03 92 1020.6
20260507123023 2 284 0.0 0.0 0.00 0.13 0.03 92 1020.5
20260507121521 2 284 0.0 0.0 0.00 0.13 0.03 91 1020.6
20260507120021 2 273 0.0 0.0 0.00 0.13 0.03 91 1020.6
20260507114519 2 272 0.0 0.0 0.00 0.13 0.03 91 1020.4
20260507113019 2 273 0.0 0.0 0.00 0.13 0.03 91 1020.6
20260507111521 2 273 0.0 0.0 0.00 0.13 0.03 91 1020.8
20260507110015 2 273 0.0 0.0 0.00 0.15 0.03 91 1020.9
20260507104514 2 360 0.0 0.0 0.00 0.15 0.03 91 1020.8
20260507103012 2 360 0.0 0.0 0.00 0.15 0.03 91 1020.9
20260507101509 2 360 0.0 0.0 0.00 0.15 0.03 91 1021.2
20260507100011 2 360 0.0 0.0 0.00 0.18 0.03 91 1021.4
20260507094506 2 360 0.0 0.0 0.00 0.18 0.03 90 1021.5
20260507093006 2 360 0.0 0.0 0.00 0.18 0.03 91 1021.5
20260507091536 3 360 0.0 0.0 0.00 0.18 0.03 90 1021.5
20260507090036 3 360 0.0 0.0 0.00 0.18 0.03 90 1021.8
20260507084536 3 360 0.0 0.0 0.00 0.18 0.03 90 1021.9
20260507083032 2 360 0.0 0.0 0.00 0.18 0.03 90 1021.9
20260507081530 2 360 0.0 0.0 0.00 0.18 0.03 90 1022.1
20260507080029 3 360 0.0 0.0 0.00 0.20 0.03 89 1022.3
20260507074556 3 360 0.0 0.0 0.00 0.20 0.03 89 1022.5
20260507073101 3 360 0.0 0.0 0.00 0.20 0.03 89 1022.7
20260507071522 4 360 0.0 0.0 0.00 0.20 0.03 89 1022.9
20260507070021 4 360 0.0 0.0 0.00 0.23 0.03 89 1023.2
20260507064519 4 360 0.0 0.0 0.00 0.23 0.03 88 1023.3
20260507063016 5 360 0.0 0.0 0.00 0.23 0.03 88 1023.3
20260507061514 5 360 0.0 0.0 0.00 0.23 0.03 88 1023.4
20260507060012 6 360 0.0 0.0 0.00 0.25 0.03 88 1023.5
20260507054509 6 360 0.0 0.0 0.00 0.25 0.03 88 1023.5
20260507053009 6 360 0.0 0.0 0.00 0.25 0.03 88 1023.5
20260507051508 6 360 0.0 0.0 0.00 0.25 0.03 88 1023.5
20260507050008 7 119 0.0 0.0 0.00 0.25 0.03 87 1023.6
20260507044551 7 360 0.0 0.0 0.00 0.25 0.03 87 1023.6
20260507043037 7 360 0.0 0.0 0.00 0.25 0.03 87 1023.8
20260507041506 7 360 0.0 0.0 0.00 0.25 0.03 86 1023.8
20260507040007 7 360 0.0 0.0 0.00 0.25 0.03 85 1023.9
20260507034538 7 360 0.0 0.0 0.00 0.25 0.03 84 1023.8
20260507033035 7 360 0.0 0.0 0.00 0.25 0.03 84 1023.6
20260507031502 7 360 0.0 0.0 0.00 0.25 0.03 84 1023.6
20260507030104 7 360 0.0 0.0 0.00 0.25 0.03 83 1023.3
20260507024528 7 360 0.0 0.0 0.00 0.25 0.03 82 1023.0
20260507023027 7 360 0.0 0.0 0.00 0.25 0.03 82 1022.7
20260507021529 8 360 0.0 0.0 0.00 0.25 0.03 82 1022.6
20260507020033 8 360 0.0 0.0 0.00 0.25 0.03 81 1022.5
20260507014524 8 360 0.0 0.0 0.00 0.25 0.03 81 1022.6
20260507013024 8 360 0.0 0.0 0.03 0.25 0.03 80 1022.7
20260507011521 8 360 0.0 0.0 0.03 0.25 0.03 79 1022.4
20260507010027 8 360 0.0 0.0 0.03 0.25 0.03 78 1022.2
20260507004526 8 360 0.0 0.0 0.03 0.25 0.03 78 1022.1
20260507003027 8 360 0.0 0.0 0.00 0.23 0.00 78 1022.0
20260507001524 8 360 0.0 0.0 0.00 0.23 0.00 78 1022.0
20260507000017 8 360 0.0 0.0 0.00 0.23 0.00 78 1022.0
20260506234517 8 360 0.0 0.0 0.00 0.23 0.00 77 1021.7
20260506233016 8 360 0.0 0.0 0.00 0.23 0.00 78 1022.0
20260506231513 8 360 0.0 0.0 0.00 0.23 0.00 78 1021.6
20260506230011 8 360 0.0 0.0 0.00 0.23 0.00 81 1021.9
20260506224509 8 360 0.0 0.0 0.00 0.23 0.00 80 1021.7
20260506223009 8 360 0.0 0.0 0.00 0.23 0.00 81 1021.6
20260506221507 8 360 0.0 0.0 0.00 0.23 0.00 82 1021.7
20260506220004 8 360 0.0 0.0 0.00 0.23 0.00 82 1021.8
20260506214505 7 360 0.0 0.0 0.00 0.23 0.00 82 1021.8
20260506213004 8 360 0.0 0.0 0.00 0.23 0.00 82 1021.7
20260506211501 8 360 0.0 0.0 0.00 0.23 0.00 82 1021.9
20260506210057 8 360 0.0 0.0 0.00 0.23 0.00 83 1022.0
20260506204617 8 360 0.0 0.0 0.00 0.23 0.00 84 1022.1
20260506203056 7 360 0.0 0.0 0.00 0.23 0.00 85 1022.1
20260506201552 7 360 0.0 0.0 0.00 0.23 0.00 86 1022.2
20260506200046 7 360 0.0 0.0 0.00 0.23 0.00 88 1022.2
20260506194558 7 360 0.0 0.0 0.00 0.23 0.00 89 1022.3
20260506193041 6 360 0.0 0.0 0.00 0.23 0.00 90 1022.4
20260506191539 6 360 0.0 0.0 0.00 0.23 0.00 90 1022.4
20260506190035 6 360 0.0 0.0 0.00 0.23 0.00 90 1022.4
20260506184533 6 360 0.0 0.0 0.00 0.23 0.00 91 1022.8
20260506183031 6 360 0.0 0.0 0.00 0.23 0.00 91 1022.8
20260506181533 6 360 0.0 0.0 0.03 0.23 0.00 91 1022.9
20260506180026 5 360 0.0 0.0 0.03 0.23 0.23 91 1023.0
20260506174523 5 360 0.0 0.0 0.03 0.23 0.23 91 1023.0
20260506173021 5 360 0.0 0.0 0.05 0.23 0.23 91 1022.9
20260506171523 5 360 0.0 0.0 0.03 0.20 0.20 91 1022.8
20260506170049 5 360 0.0 0.0 0.03 0.20 0.20 91 1022.7
20260506164555 5 360 0.0 0.0 0.05 0.20 0.20 91 1022.6
20260506163048 5 360 0.0 0.0 0.03 0.18 0.18 91 1022.5
20260506161543 5 360 0.0 0.0 0.03 0.18 0.18 91 1022.2
20260506160042 5 360 0.0 0.0 0.03 0.18 0.18 91 1022.0
20260506154544 5 360 0.0 0.0 0.00 0.15 0.15 91 1021.9
20260506153009 5 360 0.0 0.0 0.00 0.15 0.15 90 1021.8
20260506151512 5 360 0.0 0.0 0.00 0.15 0.15 90 1021.8
20260506150006 5 360 0.0 0.0 0.00 0.15 0.15 90 1021.4
20260506144505 5 360 0.0 0.0 0.00 0.15 0.15 90 1021.5
20260506143007 5 360 0.0 0.0 0.03 0.15 0.15 90 1021.6
20260506141505 5 360 0.0 0.0 0.03 0.15 0.15 89 1021.5
20260506140037 5 360 0.0 0.0 0.03 0.15 0.15 89 1021.5
20260506134535 5 360 0.0 0.0 0.03 0.15 0.15 89 1021.6
20260506133043 5 360 0.0 0.0 0.00 0.13 0.13 89 1021.5
20260506131532 5 360 0.0 0.0 0.00 0.13 0.13 89 1021.4
20260506130028 5 360 0.0 0.0 0.00 0.13 0.13 89 1020.9